Powrót do katalogu

STARLINK-5918

AktywnyŁącznośćVLEO
NORAD 55939·PAYLOAD·🇺🇸 United States

Wystrzelony Mar 17, 2023 z Vandenberg Space Force Base

Loading…

Następne Przeloty (najbliższe 24 godziny)

TLE

ŚwieżeSource: CelesTrak SupGP

Epoka: Sep 14, 2026, 21:34 UTC

1 55939C 23037AB  26257.89909722  .00369010  00000+0  30689-1 0  2576
2 55939  70.0009 167.3580 0003118 268.3863  58.0429 14.98439868    17

Śledź STARLINK-5918 w czasie rzeczywistym z AllMySat

Download on the App Store